TA2DMX-13 Weather Reports


time (UTC)temp
F
wind
direction
speed
knots
gust
knots
rain 1hr
in
rain 24hr
in
rain mn
in
humidity
%
barometer
mb
20260507151504 75 225 0.0 0.0 0.00 0.00 0.00 27 1010.8
20260507145928 76 225 0.0 0.0 0.00 0.00 0.00 26 1010.8
20260507144324 76 270 0.0 0.0 0.00 0.00 0.00 27 1011.0
20260507142721 77 270 0.0 0.0 0.00 0.00 0.00 25 1011.0
20260507141119 77 315 0.0 0.0 0.00 0.00 0.00 25 1011.1
20260507135515 78 270 0.0 0.0 0.00 0.00 0.00 25 1011.1
20260507133912 77 0 0.0 0.0 0.00 0.00 0.00 25 1011.0
20260507132308 78 225 0.0 0.0 0.00 0.00 0.00 25 1011.1
20260507124204 77 315 0.0 0.0 0.00 0.00 0.00 26 1011.3
20260507113024 77 315 0.0 0.0 0.00 0.00 0.00 27 1011.8
20260507110019 86 270 0.0 0.0 0.00 0.00 0.00 20 1011.5
20260507103006 102 270 0.0 0.0 0.00 0.00 0.00 13 1011.3
20260507101204 100 0 0.0 0.0 0.00 0.00 0.00 13 1011.4
20260507092204 100 315 0.0 0.0 0.00 0.00 0.00 13 1011.7
20260507085013 103 270 0.0 0.0 0.00 0.00 0.00 11 1011.8
20260507083411 101 270 0.0 0.0 0.00 0.00 0.00 13 1011.8
20260507081808 85 270 0.0 0.0 0.00 0.00 0.00 23 1012.3
20260507080203 78 270 0.0 0.0 0.00 0.00 0.00 27 1012.3
20260507072803 87 0 0.0 0.0 0.00 0.00 0.00 21 1012.1
20260507065517 104 0 0.0 0.0 0.00 0.00 0.00 12 1011.8
20260507063913 102 270 0.0 0.0 0.00 0.00 0.00 14 1011.9
20260507062309 99 270 0.0 0.0 0.00 0.00 0.00 16 1012.0
20260507060705 100 225 0.0 0.0 0.00 0.00 0.00 16 1011.9
20260507052521 96 270 0.0 0.0 0.00 0.00 0.00 20 1011.7
20260507050917 89 270 0.0 0.0 0.00 0.00 0.00 25 1011.9
20260507045316 86 270 0.0 0.0 0.00 0.00 0.00 28 1011.9
20260507043704 79 270 0.0 0.0 0.00 0.00 0.00 35 1011.9
20260507033911 54 0 0.0 0.0 0.00 0.00 0.00 77 1012.0
20260507032308 54 0 0.0 0.0 0.00 0.00 0.00 79 1011.9
20260507030705 53 270 0.0 0.0 0.00 0.00 0.00 79 1011.8
20260507024216 53 315 0.0 0.0 0.00 0.00 0.00 79 1011.7
20260507022611 53 270 0.0 0.0 0.00 0.00 0.00 79 1011.6
20260507021008 53 0 0.0 0.0 0.00 0.00 0.00 78 1011.5
20260507015404 53 0 0.0 0.0 0.00 0.00 0.00 78 1011.5
20260507012408 53 0 0.0 0.0 0.00 0.00 0.00 78 1011.4
20260507010703 54 0 0.0 0.0 0.00 0.00 0.00 78 1011.4
20260507004513 54 225 0.0 0.0 0.00 0.00 0.00 77 1011.5
20260507003009 54 270 0.0 0.0 0.00 0.00 0.00 76 1011.4
20260506234507 54 270 0.0 0.0 0.00 0.00 0.00 75 1011.4
20260506233005 54 270 0.0 0.0 0.00 0.00 0.00 75 1011.5
20260506231504 54 0 0.0 0.0 0.00 0.00 0.00 75 1011.5
20260506230006 55 0 0.0 0.0 0.00 0.00 0.00 75 1011.6
20260506224309 54 0 0.0 0.0 0.00 0.00 0.00 74 1011.5
20260506222703 55 270 0.0 0.0 0.00 0.00 0.00 75 1011.4
20260506212308 55 0 0.0 0.0 0.00 0.00 0.00 71 1011.5
20260506210704 56 0 0.0 0.0 0.00 0.00 0.00 68 1011.6
20260506204219 56 270 0.0 0.0 0.00 0.00 0.00 63 1011.3
20260506202617 57 270 0.0 0.0 0.00 0.00 0.00 62 1011.3
20260506201017 57 270 0.0 0.0 0.00 0.00 0.00 64 1011.3
20260506195411 57 225 0.0 0.0 0.00 0.00 0.00 63 1011.3
20260506193308 57 270 0.0 0.0 0.00 0.00 0.00 60 1011.1
20260506191704 58 270 0.0 0.0 0.00 0.00 0.00 60 1010.9
20260506190012 58 270 0.0 0.0 0.00 0.00 0.00 60 1010.7
20260506184008 58 270 0.0 0.0 0.00 0.00 0.00 61 1010.5
20260506182403 59 270 0.0 0.0 0.00 0.00 0.00 61 1010.4
20260506180007 60 0 0.0 0.0 0.00 0.00 0.00 58 1010.2
20260506173404 62 0 0.0 0.0 0.00 0.00 0.00 53 1010.0
20260506163909 65 270 0.0 0.0 0.00 0.00 0.00 48 1009.7
20260506162307 67 315 0.0 0.0 0.00 0.00 0.00 43 1009.5
20260506152908 71 315 0.0 0.0 0.00 0.00 0.00 27 1009.5